M I D A S
Marine Information and Data Acquisition System
Tripno 1754 of the Zeeleeuw from 2009-08-25 07:03:36 to 2009-08-25 14:50:38
Back to CruiseResearch ActivitiesStationsMapUnderway DataData graphs

EquipmentUnitsComments
TimeDGPSUTC
LatitudeDGPSDM.mWGS84
LongitudeDGPSDM.mWGS84
SpeedMeteo Stationm/sRelative wind speed
DirectionMeteo StationdegRelative wind direction
TemperatureMeteo Stationdeg CelciusAir temperature
PressureMeteo StationPaAtmospheric pressure
HumidityMeteo Station%Relative humidity
Missing or incorrect values are displayed as -999
Metereological data collected by the RV Zeeleeuw from 2009-08-25 07:03:36 to 2009-08-25 14:50:38
                                                                                    Next 1000 lines
Time Latitude Longitude Speed Direction Temperature Pressure Humidity
2009-08-25 07:03:50 51°14.352 2°55.085 -999 -999 -999 -999 -999
2009-08-25 07:04:00 51°14.372 2°55.049 -999 -999 -999 -999 -999
2009-08-25 07:04:10 51°14.393 2°55.015 -999 -999 -999 -999 -999
2009-08-25 07:04:20 51°14.416 2°54.984 -999 -999 -999 -999 -999
2009-08-25 07:04:30 51°14.439 2°54.955 -999 -999 -999 -999 -999
2009-08-25 07:04:40 51°14.463 2°54.926 -999 -999 -999 -999 -999
2009-08-25 07:04:50 51°14.486 2°54.895 -999 -999 -999 -999 -999
2009-08-25 07:05:00 51°14.509 2°54.864 -999 -999 -999 -999 -999
2009-08-25 07:05:10 51°14.533 2°54.836 -999 -999 -999 -999 -999
2009-08-25 07:05:20 51°14.558 2°54.81 -999 -999 -999 -999 -999
2009-08-25 07:05:30 51°14.583 2°54.785 -999 -999 -999 -999 -999
2009-08-25 07:05:40 51°14.609 2°54.76 -999 -999 -999 -999 -999
2009-08-25 07:05:50 51°14.635 2°54.735 -999 -999 -999 -999 -999
2009-08-25 07:06:00 51°14.662 2°54.711 -999 -999 -999 -999 -999
2009-08-25 07:06:10 51°14.69 2°54.687 -999 -999 -999 -999 -999
2009-08-25 07:06:20 51°14.718 2°54.663 -999 -999 -999 -999 -999
2009-08-25 07:06:30 51°14.746 2°54.638 -999 -999 -999 -999 -999
2009-08-25 07:06:40 51°14.774 2°54.614 -999 -999 -999 -999 -999
2009-08-25 07:06:50 51°14.802 2°54.59 -999 -999 -999 -999 -999
2009-08-25 07:07:00 51°14.83 2°54.566 -999 -999 -999 -999 -999
2009-08-25 07:07:10 51°14.859 2°54.541 -999 -999 -999 -999 -999
2009-08-25 07:07:20 51°14.886 2°54.517 -999 -999 -999 -999 -999
2009-08-25 07:07:30 51°14.914 2°54.492 -999 -999 -999 -999 -999
2009-08-25 07:07:40 51°14.942 2°54.468 -999 -999 -999 -999 -999
2009-08-25 07:07:50 51°14.971 2°54.444 -999 -999 -999 -999 -999
2009-08-25 07:08:00 51°14.999 2°54.42 -999 -999 -999 -999 -999
2009-08-25 07:08:10 51°15.027 2°54.394 -999 -999 -999 -999 -999
2009-08-25 07:08:20 51°15.054 2°54.369 -999 -999 -999 -999 -999
2009-08-25 07:08:30 51°15.082 2°54.344 -999 -999 -999 -999 -999
2009-08-25 07:08:40 51°15.11 2°54.318 -999 -999 -999 -999 -999
2009-08-25 07:08:50 51°15.138 2°54.293 -999 -999 -999 -999 -999
2009-08-25 07:09:00 51°15.165 2°54.267 -999 -999 -999 -999 -999
2009-08-25 07:09:10 51°15.194 2°54.243 -999 -999 -999 -999 -999
2009-08-25 07:09:20 51°15.222 2°54.218 -999 -999 -999 -999 -999
2009-08-25 07:09:30 51°15.25 2°54.194 -999 -999 -999 -999 -999
2009-08-25 07:09:40 51°15.279 2°54.17 -999 -999 -999 -999 -999
2009-08-25 07:09:50 51°15.307 2°54.146 -999 -999 -999 -999 -999
2009-08-25 07:10:00 51°15.336 2°54.122 -999 -999 -999 -999 -999
2009-08-25 07:10:10 51°15.364 2°54.098 -999 -999 -999 -999 -999
2009-08-25 07:10:20 51°15.392 2°54.073 -999 -999 -999 -999 -999
2009-08-25 07:10:30 51°15.42 2°54.048 -999 -999 -999 -999 -999
2009-08-25 07:10:40 51°15.448 2°54.024 -999 -999 -999 -999 -999
2009-08-25 07:10:50 51°15.477 2°53.999 -999 -999 -999 -999 -999
2009-08-25 07:11:00 51°15.504 2°53.974 -999 -999 -999 -999 -999
2009-08-25 07:11:10 51°15.532 2°53.949 -999 -999 -999 -999 -999
2009-08-25 07:11:20 51°15.561 2°53.925 -999 -999 -999 -999 -999
2009-08-25 07:11:30 51°15.589 2°53.9 -999 -999 -999 -999 -999
2009-08-25 07:11:40 51°15.617 2°53.875 -999 -999 -999 -999 -999
2009-08-25 07:11:50 51°15.645 2°53.85 -999 -999 -999 -999 -999
2009-08-25 07:12:00 51°15.673 2°53.825 -999 -999 -999 -999 -999
2009-08-25 07:12:10 51°15.701 2°53.8 -999 -999 -999 -999 -999
2009-08-25 07:12:20 51°15.729 2°53.774 -999 -999 -999 -999 -999
2009-08-25 07:12:30 51°15.756 2°53.748 -999 -999 -999 -999 -999
2009-08-25 07:12:40 51°15.784 2°53.723 -999 -999 -999 -999 -999
2009-08-25 07:12:50 51°15.812 2°53.697 -999 -999 -999 -999 -999
2009-08-25 07:13:00 51°15.84 2°53.672 -999 -999 -999 -999 -999
2009-08-25 07:13:10 51°15.868 2°53.646 -999 -999 -999 -999 -999
2009-08-25 07:13:20 51°15.896 2°53.622 -999 -999 -999 -999 -999
2009-08-25 07:13:30 51°15.924 2°53.597 -999 -999 -999 -999 -999
2009-08-25 07:13:40 51°15.95 2°53.576 -999 -999 -999 -999 -999
2009-08-25 07:13:50 51°15.979 2°53.551 -999 -999 -999 -999 -999
2009-08-25 07:14:00 51°16.007 2°53.526 -999 -999 -999 -999 -999
2009-08-25 07:14:10 51°16.035 2°53.501 -999 -999 -999 -999 -999
2009-08-25 07:14:20 51°16.063 2°53.477 -999 -999 -999 -999 -999
2009-08-25 07:14:30 51°16.092 2°53.452 -999 -999 -999 -999 -999
2009-08-25 07:14:40 51°16.12 2°53.427 -999 -999 -999 -999 -999
2009-08-25 07:14:50 51°16.148 2°53.401 -999 -999 -999 -999 -999
2009-08-25 07:15:00 51°16.177 2°53.376 -999 -999 -999 -999 -999
2009-08-25 07:15:10 51°16.205 2°53.35 -999 -999 -999 -999 -999
2009-08-25 07:15:20 51°16.233 2°53.325 -999 -999 -999 -999 -999
2009-08-25 07:15:30 51°16.261 2°53.299 -999 -999 -999 -999 -999
2009-08-25 07:15:40 51°16.289 2°53.273 -999 -999 -999 -999 -999
2009-08-25 07:15:50 51°16.317 2°53.248 -999 -999 -999 -999 -999
2009-08-25 07:16:00 51°16.345 2°53.222 -999 -999 -999 -999 -999
2009-08-25 07:16:10 51°16.373 2°53.197 -999 -999 -999 -999 -999
2009-08-25 07:16:20 51°16.401 2°53.171 -999 -999 -999 -999 -999
2009-08-25 07:16:30 51°16.429 2°53.145 -999 -999 -999 -999 -999
2009-08-25 07:16:40 51°16.457 2°53.119 -999 -999 -999 -999 -999
2009-08-25 07:16:50 51°16.485 2°53.093 -999 -999 -999 -999 -999
2009-08-25 07:17:00 51°16.513 2°53.067 -999 -999 -999 -999 -999
2009-08-25 07:17:10 51°16.541 2°53.042 -999 -999 -999 -999 -999
2009-08-25 07:17:20 51°16.569 2°53.016 -999 -999 -999 -999 -999
2009-08-25 07:17:30 51°16.597 2°52.991 -999 -999 -999 -999 -999
2009-08-25 07:17:40 51°16.625 2°52.965 -999 -999 -999 -999 -999
2009-08-25 07:17:50 51°16.653 2°52.94 -999 -999 -999 -999 -999
2009-08-25 07:18:00 51°16.681 2°52.914 -999 -999 -999 -999 -999
2009-08-25 07:18:10 51°16.709 2°52.889 -999 -999 -999 -999 -999
2009-08-25 07:18:20 51°16.736 2°52.862 -999 -999 -999 -999 -999
2009-08-25 07:18:30 51°16.764 2°52.836 -999 -999 -999 -999 -999
2009-08-25 07:18:40 51°16.791 2°52.809 -999 -999 -999 -999 -999
2009-08-25 07:18:50 51°16.819 2°52.784 -999 -999 -999 -999 -999
2009-08-25 07:19:00 51°16.847 2°52.758 -999 -999 -999 -999 -999
2009-08-25 07:19:10 51°16.874 2°52.731 -999 -999 -999 -999 -999
2009-08-25 07:19:20 51°16.902 2°52.705 -999 -999 -999 -999 -999
2009-08-25 07:19:30 51°16.929 2°52.678 -999 -999 -999 -999 -999
2009-08-25 07:19:40 51°16.957 2°52.652 -999 -999 -999 -999 -999
2009-08-25 07:19:50 51°16.985 2°52.626 -999 -999 -999 -999 -999
2009-08-25 07:20:00 51°17.013 2°52.598 -999 -999 -999 -999 -999
2009-08-25 07:20:10 51°17.04 2°52.572 -999 -999 -999 -999 -999
2009-08-25 07:20:20 51°17.068 2°52.545 -999 -999 -999 -999 -999
2009-08-25 07:20:30 51°17.096 2°52.519 -999 -999 -999 -999 -999
2009-08-25 07:20:40 51°17.123 2°52.492 -999 -999 -999 -999 -999
2009-08-25 07:20:50 51°17.151 2°52.465 -999 -999 -999 -999 -999
2009-08-25 07:21:00 51°17.178 2°52.438 -999 -999 -999 -999 -999
2009-08-25 07:21:10 51°17.206 2°52.413 -999 -999 -999 -999 -999
2009-08-25 07:21:20 51°17.235 2°52.39 -999 -999 -999 -999 -999
2009-08-25 07:21:30 51°17.264 2°52.368 -999 -999 -999 -999 -999
2009-08-25 07:21:40 51°17.293 2°52.347 -999 -999 -999 -999 -999
2009-08-25 07:21:50 51°17.322 2°52.326 -999 -999 -999 -999 -999
2009-08-25 07:22:00 51°17.352 2°52.305 -999 -999 -999 -999 -999
2009-08-25 07:22:10 51°17.381 2°52.285 -999 -999 -999 -999 -999
2009-08-25 07:22:20 51°17.41 2°52.264 -999 -999 -999 -999 -999
2009-08-25 07:22:30 51°17.44 2°52.244 -999 -999 -999 -999 -999
2009-08-25 07:22:40 51°17.47 2°52.225 -999 -999 -999 -999 -999
2009-08-25 07:22:50 51°17.5 2°52.206 -999 -999 -999 -999 -999
2009-08-25 07:23:00 51°17.529 2°52.185 -999 -999 -999 -999 -999
2009-08-25 07:23:10 51°17.558 2°52.162 -999 -999 -999 -999 -999
2009-08-25 07:23:20 51°17.587 2°52.139 -999 -999 -999 -999 -999
2009-08-25 07:23:30 51°17.615 2°52.114 -999 -999 -999 -999 -999
2009-08-25 07:23:40 51°17.643 2°52.087 -999 -999 -999 -999 -999
2009-08-25 07:23:50 51°17.67 2°52.059 -999 -999 -999 -999 -999
2009-08-25 07:24:00 51°17.697 2°52.029 -999 -999 -999 -999 -999
2009-08-25 07:24:10 51°17.723 2°51.999 -999 -999 -999 -999 -999
2009-08-25 07:24:20 51°17.749 2°51.968 -999 -999 -999 -999 -999
2009-08-25 07:24:30 51°17.774 2°51.936 -999 -999 -999 -999 -999
2009-08-25 07:24:40 51°17.8 2°51.904 -999 -999 -999 -999 -999
2009-08-25 07:24:50 51°17.826 2°51.872 -999 -999 -999 -999 -999
2009-08-25 07:25:00 51°17.851 2°51.839 -999 -999 -999 -999 -999
2009-08-25 07:25:10 51°17.877 2°51.806 -999 -999 -999 -999 -999
2009-08-25 07:25:20 51°17.903 2°51.774 -999 -999 -999 -999 -999
2009-08-25 07:25:30 51°17.928 2°51.741 -999 -999 -999 -999 -999
2009-08-25 07:25:40 51°17.954 2°51.709 -999 -999 -999 -999 -999
2009-08-25 07:25:50 51°17.98 2°51.677 -999 -999 -999 -999 -999
2009-08-25 07:26:00 51°18.006 2°51.645 -999 -999 -999 -999 -999
2009-08-25 07:26:10 51°18.032 2°51.613 -999 -999 -999 -999 -999
2009-08-25 07:26:20 51°18.058 2°51.581 -999 -999 -999 -999 -999
2009-08-25 07:26:30 51°18.083 2°51.548 -999 -999 -999 -999 -999
2009-08-25 07:26:40 51°18.109 2°51.516 -999 -999 -999 -999 -999
2009-08-25 07:26:50 51°18.135 2°51.484 -999 -999 -999 -999 -999
2009-08-25 07:27:00 51°18.164 2°51.451 -999 -999 -999 -999 -999
2009-08-25 07:27:10 51°18.189 2°51.425 -999 -999 -999 -999 -999
2009-08-25 07:27:20 51°18.219 2°51.393 -999 -999 -999 -999 -999
2009-08-25 07:27:30 51°18.243 2°51.368 -999 -999 -999 -999 -999
2009-08-25 07:27:40 51°18.274 2°51.337 -999 -999 -999 -999 -999
2009-08-25 07:27:50 51°18.299 2°51.312 -999 -999 -999 -999 -999
2009-08-25 07:28:00 51°18.33 2°51.283 -999 -999 -999 -999 -999
2009-08-25 07:28:10 51°18.355 2°51.258 -999 -999 -999 -999 -999
2009-08-25 07:28:20 51°18.385 2°51.228 -999 -999 -999 -999 -999
2009-08-25 07:28:30 51°18.41 2°51.204 -999 -999 -999 -999 -999
2009-08-25 07:28:40 51°18.441 2°51.173 -999 -999 -999 -999 -999
2009-08-25 07:28:50 51°18.465 2°51.148 -999 -999 -999 -999 -999
2009-08-25 07:29:00 51°18.493 2°51.12 -999 -999 -999 -999 -999
2009-08-25 07:29:10 51°18.523 2°51.089 -999 -999 -999 -999 -999
2009-08-25 07:29:20 51°18.552 2°51.063 -999 -999 -999 -999 -999
2009-08-25 07:29:30 51°18.58 2°51.038 -999 -999 -999 -999 -999
2009-08-25 07:29:40 51°18.609 2°51.013 -999 -999 -999 -999 -999
2009-08-25 07:29:50 51°18.638 2°50.99 -999 -999 -999 -999 -999
2009-08-25 07:30:00 51°18.667 2°50.966 -999 -999 -999 -999 -999
2009-08-25 07:30:10 51°18.696 2°50.942 -999 -999 -999 -999 -999
2009-08-25 07:30:20 51°18.725 2°50.918 -999 -999 -999 -999 -999
2009-08-25 07:30:30 51°18.753 2°50.893 -999 -999 -999 -999 -999
2009-08-25 07:30:40 51°18.783 2°50.87 -999 -999 -999 -999 -999
2009-08-25 07:30:50 51°18.812 2°50.848 -999 -999 -999 -999 -999
2009-08-25 07:31:00 51°18.842 2°50.826 -999 -999 -999 -999 -999
2009-08-25 07:31:10 51°18.872 2°50.805 -999 -999 -999 -999 -999
2009-08-25 07:31:20 51°18.902 2°50.784 -999 -999 -999 -999 -999
2009-08-25 07:31:30 51°18.932 2°50.763 -999 -999 -999 -999 -999
2009-08-25 07:31:40 51°18.962 2°50.743 -999 -999 -999 -999 -999
2009-08-25 07:31:50 51°18.993 2°50.724 -999 -999 -999 -999 -999
2009-08-25 07:32:00 51°19.023 2°50.705 -999 -999 -999 -999 -999
2009-08-25 07:32:10 51°19.053 2°50.685 -999 -999 -999 -999 -999
2009-08-25 07:32:20 51°19.084 2°50.666 -999 -999 -999 -999 -999
2009-08-25 07:32:30 51°19.114 2°50.647 -999 -999 -999 -999 -999
2009-08-25 07:32:40 51°19.145 2°50.628 -999 -999 -999 -999 -999
2009-08-25 07:32:50 51°19.175 2°50.609 -999 -999 -999 -999 -999
2009-08-25 07:33:00 51°19.206 2°50.589 -999 -999 -999 -999 -999
2009-08-25 07:33:10 51°19.236 2°50.57 -999 -999 -999 -999 -999
2009-08-25 07:33:20 51°19.267 2°50.552 -999 -999 -999 -999 -999
2009-08-25 07:33:30 51°19.298 2°50.534 -999 -999 -999 -999 -999
2009-08-25 07:33:40 51°19.326 2°50.518 -999 -999 -999 -999 -999
2009-08-25 07:33:50 51°19.36 2°50.498 -999 -999 -999 -999 -999
2009-08-25 07:34:00 51°19.391 2°50.48 -999 -999 -999 -999 -999
2009-08-25 07:34:10 51°19.422 2°50.462 -999 -999 -999 -999 -999
2009-08-25 07:34:20 51°19.452 2°50.444 -999 -999 -999 -999 -999
2009-08-25 07:34:30 51°19.483 2°50.426 -999 -999 -999 -999 -999
2009-08-25 07:34:40 51°19.514 2°50.407 -999 -999 -999 -999 -999
2009-08-25 07:34:50 51°19.545 2°50.389 -999 -999 -999 -999 -999
2009-08-25 07:35:00 51°19.576 2°50.371 -999 -999 -999 -999 -999
2009-08-25 07:35:10 51°19.607 2°50.352 -999 -999 -999 -999 -999
2009-08-25 07:35:20 51°19.638 2°50.333 -999 -999 -999 -999 -999
2009-08-25 07:35:30 51°19.669 2°50.315 -999 -999 -999 -999 -999
2009-08-25 07:35:40 51°19.701 2°50.297 -999 -999 -999 -999 -999
2009-08-25 07:35:50 51°19.731 2°50.278 -999 -999 -999 -999 -999
2009-08-25 07:36:00 51°19.762 2°50.259 -999 -999 -999 -999 -999
2009-08-25 07:36:10 51°19.793 2°50.24 -999 -999 -999 -999 -999
2009-08-25 07:36:20 51°19.823 2°50.22 -999 -999 -999 -999 -999
2009-08-25 07:36:30 51°19.853 2°50.2 -999 -999 -999 -999 -999
2009-08-25 07:36:40 51°19.883 2°50.18 -999 -999 -999 -999 -999
2009-08-25 07:36:50 51°19.914 2°50.16 -999 -999 -999 -999 -999
2009-08-25 07:37:00 51°19.944 2°50.141 -999 -999 -999 -999 -999
2009-08-25 07:37:10 51°19.975 2°50.123 -999 -999 -999 -999 -999
2009-08-25 07:37:20 51°20.005 2°50.107 -999 -999 -999 -999 -999
2009-08-25 07:37:30 51°20.036 2°50.089 -999 -999 -999 -999 -999
2009-08-25 07:37:40 51°20.067 2°50.072 -999 -999 -999 -999 -999
2009-08-25 07:37:50 51°20.097 2°50.055 -999 -999 -999 -999 -999
2009-08-25 07:38:00 51°20.128 2°50.039 -999 -999 -999 -999 -999
2009-08-25 07:38:10 51°20.158 2°50.022 -999 -999 -999 -999 -999
2009-08-25 07:38:20 51°20.189 2°50.007 -999 -999 -999 -999 -999
2009-08-25 07:38:30 51°20.22 2°49.991 -999 -999 -999 -999 -999
2009-08-25 07:38:40 51°20.251 2°49.975 -999 -999 -999 -999 -999
2009-08-25 07:38:50 51°20.281 2°49.959 -999 -999 -999 -999 -999
2009-08-25 07:39:00 51°20.312 2°49.943 -999 -999 -999 -999 -999
2009-08-25 07:39:10 51°20.343 2°49.927 -999 -999 -999 -999 -999
2009-08-25 07:39:20 51°20.374 2°49.911 -999 -999 -999 -999 -999
2009-08-25 07:39:30 51°20.405 2°49.895 -999 -999 -999 -999 -999
2009-08-25 07:39:40 51°20.436 2°49.879 -999 -999 -999 -999 -999
2009-08-25 07:39:50 51°20.468 2°49.863 -999 -999 -999 -999 -999
2009-08-25 07:40:00 51°20.496 2°49.848 -999 -999 -999 -999 -999
2009-08-25 07:40:10 51°20.527 2°49.833 -999 -999 -999 -999 -999
2009-08-25 07:40:20 51°20.562 2°49.816 -999 -999 -999 -999 -999
2009-08-25 07:40:30 51°20.593 2°49.8 -999 -999 -999 -999 -999
2009-08-25 07:40:40 51°20.622 2°49.786 -999 -999 -999 -999 -999
2009-08-25 07:40:50 51°20.653 2°49.771 -999 -999 -999 -999 -999
2009-08-25 07:41:00 51°20.688 2°49.755 -999 -999 -999 -999 -999
2009-08-25 07:41:10 51°20.716 2°49.743 -999 -999 -999 -999 -999
2009-08-25 07:41:20 51°20.751 2°49.727 -999 -999 -999 -999 -999
2009-08-25 07:41:30 51°20.782 2°49.712 -999 -999 -999 -999 -999
2009-08-25 07:41:40 51°20.813 2°49.698 -999 -999 -999 -999 -999
2009-08-25 07:41:50 51°20.844 2°49.683 -999 -999 -999 -999 -999
2009-08-25 07:42:00 51°20.875 2°49.668 -999 -999 -999 -999 -999
2009-08-25 07:42:10 51°20.905 2°49.654 -999 -999 -999 -999 -999
2009-08-25 07:42:20 51°20.936 2°49.639 -999 -999 -999 -999 -999
2009-08-25 07:42:30 51°20.967 2°49.623 -999 -999 -999 -999 -999
2009-08-25 07:42:40 51°20.998 2°49.607 -999 -999 -999 -999 -999
2009-08-25 07:42:50 51°21.029 2°49.592 -999 -999 -999 -999 -999
2009-08-25 07:43:00 51°21.06 2°49.576 -999 -999 -999 -999 -999
2009-08-25 07:43:10 51°21.091 2°49.561 -999 -999 -999 -999 -999
2009-08-25 07:43:20 51°21.122 2°49.545 -999 -999 -999 -999 -999
2009-08-25 07:43:30 51°21.154 2°49.53 -999 -999 -999 -999 -999
2009-08-25 07:43:40 51°21.185 2°49.514 -999 -999 -999 -999 -999
2009-08-25 07:43:50 51°21.216 2°49.498 -999 -999 -999 -999 -999
2009-08-25 07:44:00 51°21.247 2°49.482 -999 -999 -999 -999 -999
2009-08-25 07:44:10 51°21.278 2°49.465 -999 -999 -999 -999 -999
2009-08-25 07:44:20 51°21.309 2°49.449 -999 -999 -999 -999 -999
2009-08-25 07:44:30 51°21.339 2°49.431 -999 -999 -999 -999 -999
2009-08-25 07:44:40 51°21.37 2°49.414 -999 -999 -999 -999 -999
2009-08-25 07:44:50 51°21.401 2°49.397 -999 -999 -999 -999 -999
2009-08-25 07:45:00 51°21.431 2°49.379 -999 -999 -999 -999 -999
2009-08-25 07:45:10 51°21.462 2°49.36 -999 -999 -999 -999 -999
2009-08-25 07:45:20 51°21.492 2°49.342 -999 -999 -999 -999 -999
2009-08-25 07:45:30 51°21.522 2°49.322 -999 -999 -999 -999 -999
2009-08-25 07:45:40 51°21.553 2°49.304 -999 -999 -999 -999 -999
2009-08-25 07:45:50 51°21.583 2°49.285 -999 -999 -999 -999 -999
2009-08-25 07:46:00 51°21.614 2°49.266 -999 -999 -999 -999 -999
2009-08-25 07:46:10 51°21.644 2°49.247 -999 -999 -999 -999 -999
2009-08-25 07:46:20 51°21.675 2°49.228 -999 -999 -999 -999 -999
2009-08-25 07:46:30 51°21.705 2°49.208 -999 -999 -999 -999 -999
2009-08-25 07:46:40 51°21.735 2°49.189 -999 -999 -999 -999 -999
2009-08-25 07:46:50 51°21.765 2°49.17 -999 -999 -999 -999 -999
2009-08-25 07:47:00 51°21.795 2°49.15 -999 -999 -999 -999 -999
2009-08-25 07:47:10 51°21.825 2°49.129 -999 -999 -999 -999 -999
2009-08-25 07:47:20 51°21.855 2°49.108 -999 -999 -999 -999 -999
2009-08-25 07:47:30 51°21.885 2°49.088 -999 -999 -999 -999 -999
2009-08-25 07:47:40 51°21.914 2°49.067 -999 -999 -999 -999 -999
2009-08-25 07:47:50 51°21.944 2°49.047 -999 -999 -999 -999 -999
2009-08-25 07:48:00 51°21.974 2°49.027 -999 -999 -999 -999 -999
2009-08-25 07:48:10 51°22.004 2°49.007 -999 -999 -999 -999 -999
2009-08-25 07:48:20 51°22.034 2°48.987 -999 -999 -999 -999 -999
2009-08-25 07:48:30 51°22.064 2°48.967 -999 -999 -999 -999 -999
2009-08-25 07:48:40 51°22.093 2°48.946 -999 -999 -999 -999 -999
2009-08-25 07:48:50 51°22.122 2°48.925 -999 -999 -999 -999 -999
2009-08-25 07:49:00 51°22.152 2°48.905 -999 -999 -999 -999 -999
2009-08-25 07:49:10 51°22.182 2°48.885 -999 -999 -999 -999 -999
2009-08-25 07:49:20 51°22.212 2°48.865 -999 -999 -999 -999 -999
2009-08-25 07:49:30 51°22.242 2°48.846 -999 -999 -999 -999 -999
2009-08-25 07:49:40 51°22.273 2°48.826 -999 -999 -999 -999 -999
2009-08-25 07:49:50 51°22.303 2°48.807 -999 -999 -999 -999 -999
2009-08-25 07:50:00 51°22.334 2°48.788 -999 -999 -999 -999 -999
2009-08-25 07:50:10 51°22.364 2°48.768 -999 -999 -999 -999 -999
2009-08-25 07:50:20 51°22.395 2°48.749 -999 -999 -999 -999 -999
2009-08-25 07:50:30 51°22.426 2°48.73 -999 -999 -999 -999 -999
2009-08-25 07:50:40 51°22.456 2°48.711 -999 -999 -999 -999 -999
2009-08-25 07:50:50 51°22.487 2°48.692 -999 -999 -999 -999 -999
2009-08-25 07:51:00 51°22.518 2°48.673 -999 -999 -999 -999 -999
2009-08-25 07:51:10 51°22.548 2°48.654 -999 -999 -999 -999 -999
2009-08-25 07:51:20 51°22.579 2°48.635 -999 -999 -999 -999 -999
2009-08-25 07:51:30 51°22.609 2°48.615 -999 -999 -999 -999 -999
2009-08-25 07:51:40 51°22.64 2°48.595 -999 -999 -999 -999 -999
2009-08-25 07:51:50 51°22.67 2°48.575 -999 -999 -999 -999 -999
2009-08-25 07:52:00 51°22.701 2°48.555 -999 -999 -999 -999 -999
2009-08-25 07:52:10 51°22.731 2°48.535 -999 -999 -999 -999 -999
2009-08-25 07:52:20 51°22.761 2°48.515 -999 -999 -999 -999 -999
2009-08-25 07:52:30 51°22.792 2°48.495 -999 -999 -999 -999 -999
2009-08-25 07:52:40 51°22.822 2°48.475 -999 -999 -999 -999 -999
2009-08-25 07:52:50 51°22.853 2°48.455 -999 -999 -999 -999 -999
2009-08-25 07:53:00 51°22.883 2°48.435 -999 -999 -999 -999 -999
2009-08-25 07:53:10 51°22.913 2°48.414 -999 -999 -999 -999 -999
2009-08-25 07:53:20 51°22.944 2°48.393 -999 -999 -999 -999 -999
2009-08-25 07:53:30 51°22.974 2°48.373 -999 -999 -999 -999 -999
2009-08-25 07:53:40 51°23.004 2°48.352 -999 -999 -999 -999 -999
2009-08-25 07:53:50 51°23.034 2°48.332 -999 -999 -999 -999 -999
2009-08-25 07:54:00 51°23.065 2°48.311 -999 -999 -999 -999 -999
2009-08-25 07:54:10 51°23.095 2°48.291 -999 -999 -999 -999 -999
2009-08-25 07:54:20 51°23.125 2°48.27 -999 -999 -999 -999 -999
2009-08-25 07:54:30 51°23.156 2°48.249 -999 -999 -999 -999 -999
2009-08-25 07:54:40 51°23.186 2°48.228 -999 -999 -999 -999 -999
2009-08-25 07:54:50 51°23.216 2°48.208 -999 -999 -999 -999 -999
2009-08-25 07:55:00 51°23.247 2°48.188 -999 -999 -999 -999 -999
2009-08-25 07:55:10 51°23.277 2°48.168 -999 -999 -999 -999 -999
2009-08-25 07:55:20 51°23.307 2°48.147 -999 -999 -999 -999 -999
2009-08-25 07:55:30 51°23.337 2°48.126 -999 -999 -999 -999 -999
2009-08-25 07:55:40 51°23.367 2°48.105 -999 -999 -999 -999 -999
2009-08-25 07:55:50 51°23.397 2°48.084 -999 -999 -999 -999 -999
2009-08-25 07:56:00 51°23.427 2°48.063 -999 -999 -999 -999 -999
2009-08-25 07:56:10 51°23.457 2°48.042 -999 -999 -999 -999 -999
2009-08-25 07:56:20 51°23.487 2°48.021 -999 -999 -999 -999 -999
2009-08-25 07:56:30 51°23.517 2°48 -999 -999 -999 -999 -999
2009-08-25 07:56:40 51°23.546 2°47.979 -999 -999 -999 -999 -999
2009-08-25 07:56:50 51°23.576 2°47.957 -999 -999 -999 -999 -999
2009-08-25 07:57:00 51°23.606 2°47.935 -999 -999 -999 -999 -999
2009-08-25 07:57:10 51°23.636 2°47.914 -999 -999 -999 -999 -999
2009-08-25 07:57:20 51°23.666 2°47.893 -999 -999 -999 -999 -999
2009-08-25 07:57:30 51°23.696 2°47.871 -999 -999 -999 -999 -999
2009-08-25 07:57:40 51°23.725 2°47.849 -999 -999 -999 -999 -999
2009-08-25 07:57:50 51°23.755 2°47.827 -999 -999 -999 -999 -999
2009-08-25 07:58:00 51°23.785 2°47.806 -999 -999 -999 -999 -999
2009-08-25 07:58:10 51°23.815 2°47.784 -999 -999 -999 -999 -999
2009-08-25 07:58:20 51°23.845 2°47.762 -999 -999 -999 -999 -999
2009-08-25 07:58:30 51°23.874 2°47.741 -999 -999 -999 -999 -999
2009-08-25 07:58:40 51°23.904 2°47.719 -999 -999 -999 -999 -999
2009-08-25 07:58:50 51°23.934 2°47.698 -999 -999 -999 -999 -999
2009-08-25 07:59:00 51°23.964 2°47.676 -999 -999 -999 -999 -999
2009-08-25 07:59:10 51°23.993 2°47.653 -999 -999 -999 -999 -999
2009-08-25 07:59:20 51°24.022 2°47.631 -999 -999 -999 -999 -999
2009-08-25 07:59:30 51°24.052 2°47.61 -999 -999 -999 -999 -999
2009-08-25 07:59:40 51°24.082 2°47.589 -999 -999 -999 -999 -999
2009-08-25 07:59:50 51°24.112 2°47.568 -999 -999 -999 -999 -999
2009-08-25 08:00:00 51°24.142 2°47.547 -999 -999 -999 -999 -999
2009-08-25 08:00:10 51°24.171 2°47.526 -999 -999 -999 -999 -999
2009-08-25 08:00:20 51°24.201 2°47.504 -999 -999 -999 -999 -999
2009-08-25 08:00:30 51°24.23 2°47.483 -999 -999 -999 -999 -999
2009-08-25 08:00:40 51°24.26 2°47.461 -999 -999 -999 -999 -999
2009-08-25 08:00:50 51°24.289 2°47.44 -999 -999 -999 -999 -999
2009-08-25 08:01:00 51°24.319 2°47.418 -999 -999 -999 -999 -999
2009-08-25 08:01:10 51°24.348 2°47.397 -999 -999 -999 -999 -999
2009-08-25 08:01:20 51°24.378 2°47.376 -999 -999 -999 -999 -999
2009-08-25 08:01:30 51°24.408 2°47.355 -999 -999 -999 -999 -999
2009-08-25 08:01:40 51°24.437 2°47.334 -999 -999 -999 -999 -999
2009-08-25 08:01:50 51°24.467 2°47.313 -999 -999 -999 -999 -999
2009-08-25 08:02:00 51°24.496 2°47.292 -999 -999 -999 -999 -999
2009-08-25 08:02:10 51°24.526 2°47.271 -999 -999 -999 -999 -999
2009-08-25 08:02:20 51°24.555 2°47.25 -999 -999 -999 -999 -999
2009-08-25 08:02:30 51°24.584 2°47.228 -999 -999 -999 -999 -999
2009-08-25 08:02:40 51°24.613 2°47.207 -999 -999 -999 -999 -999
2009-08-25 08:02:50 51°24.643 2°47.185 -999 -999 -999 -999 -999
2009-08-25 08:03:00 51°24.673 2°47.164 -999 -999 -999 -999 -999
2009-08-25 08:03:10 51°24.702 2°47.143 -999 -999 -999 -999 -999
2009-08-25 08:03:20 51°24.732 2°47.123 -999 -999 -999 -999 -999
2009-08-25 08:03:30 51°24.759 2°47.104 -999 -999 -999 -999 -999
2009-08-25 08:03:40 51°24.784 2°47.085 -999 -999 -999 -999 -999
2009-08-25 08:03:50 51°24.81 2°47.067 -999 -999 -999 -999 -999
2009-08-25 08:04:00 51°24.838 2°47.046 -999 -999 -999 -999 -999
2009-08-25 08:04:10 51°24.866 2°47.026 -999 -999 -999 -999 -999
2009-08-25 08:04:20 51°24.895 2°47.005 -999 -999 -999 -999 -999
2009-08-25 08:04:30 51°24.924 2°46.984 -999 -999 -999 -999 -999
2009-08-25 08:04:40 51°24.953 2°46.963 -999 -999 -999 -999 -999
2009-08-25 08:04:50 51°24.982 2°46.942 -999 -999 -999 -999 -999
2009-08-25 08:05:00 51°25.011 2°46.92 -999 -999 -999 -999 -999
2009-08-25 08:05:10 51°25.041 2°46.899 -999 -999 -999 -999 -999
2009-08-25 08:05:20 51°25.071 2°46.879 -999 -999 -999 -999 -999
2009-08-25 08:05:30 51°25.1 2°46.858 -999 -999 -999 -999 -999
2009-08-25 08:05:40 51°25.129 2°46.836 -999 -999 -999 -999 -999
2009-08-25 08:05:50 51°25.159 2°46.814 -999 -999 -999 -999 -999
2009-08-25 08:06:00 51°25.189 2°46.793 -999 -999 -999 -999 -999
2009-08-25 08:06:10 51°25.218 2°46.771 -999 -999 -999 -999 -999
2009-08-25 08:06:20 51°25.248 2°46.75 -999 -999 -999 -999 -999
2009-08-25 08:06:30 51°25.278 2°46.729 -999 -999 -999 -999 -999
2009-08-25 08:06:40 51°25.307 2°46.708 -999 -999 -999 -999 -999
2009-08-25 08:06:50 51°25.337 2°46.687 -999 -999 -999 -999 -999
2009-08-25 08:07:00 51°25.367 2°46.666 -999 -999 -999 -999 -999
2009-08-25 08:07:10 51°25.397 2°46.645 -999 -999 -999 -999 -999
2009-08-25 08:07:20 51°25.427 2°46.623 -999 -999 -999 -999 -999
2009-08-25 08:07:30 51°25.457 2°46.602 -999 -999 -999 -999 -999
2009-08-25 08:07:40 51°25.486 2°46.581 -999 -999 -999 -999 -999
2009-08-25 08:07:50 51°25.516 2°46.56 -999 -999 -999 -999 -999
2009-08-25 08:08:00 51°25.546 2°46.538 -999 -999 -999 -999 -999
2009-08-25 08:08:10 51°25.576 2°46.516 -999 -999 -999 -999 -999
2009-08-25 08:08:20 51°25.605 2°46.494 -999 -999 -999 -999 -999
2009-08-25 08:08:30 51°25.635 2°46.472 -999 -999 -999 -999 -999
2009-08-25 08:08:40 51°25.665 2°46.451 -999 -999 -999 -999 -999
2009-08-25 08:08:50 51°25.696 2°46.431 -999 -999 -999 -999 -999
2009-08-25 08:09:00 51°25.726 2°46.411 -999 -999 -999 -999 -999
2009-08-25 08:09:10 51°25.756 2°46.391 -999 -999 -999 -999 -999
2009-08-25 08:09:20 51°25.786 2°46.37 -999 -999 -999 -999 -999
2009-08-25 08:09:30 51°25.817 2°46.349 -999 -999 -999 -999 -999
2009-08-25 08:09:40 51°25.847 2°46.328 -999 -999 -999 -999 -999
2009-08-25 08:09:50 51°25.877 2°46.308 -999 -999 -999 -999 -999
2009-08-25 08:10:00 51°25.906 2°46.286 -999 -999 -999 -999 -999
2009-08-25 08:10:10 51°25.936 2°46.266 -999 -999 -999 -999 -999
2009-08-25 08:10:20 51°25.966 2°46.244 -999 -999 -999 -999 -999
2009-08-25 08:10:30 51°25.995 2°46.222 -999 -999 -999 -999 -999
2009-08-25 08:10:40 51°26.025 2°46.201 -999 -999 -999 -999 -999
2009-08-25 08:10:50 51°26.055 2°46.18 -999 -999 -999 -999 -999
2009-08-25 08:11:00 51°26.084 2°46.158 -999 -999 -999 -999 -999
2009-08-25 08:11:10 51°26.114 2°46.137 -999 -999 -999 -999 -999
2009-08-25 08:11:20 51°26.143 2°46.116 -999 -999 -999 -999 -999
2009-08-25 08:11:30 51°26.173 2°46.095 -999 -999 -999 -999 -999
2009-08-25 08:11:40 51°26.202 2°46.075 -999 -999 -999 -999 -999
2009-08-25 08:11:50 51°26.232 2°46.054 -999 -999 -999 -999 -999
2009-08-25 08:12:00 51°26.261 2°46.033 -999 -999 -999 -999 -999
2009-08-25 08:12:10 51°26.29 2°46.011 -999 -999 -999 -999 -999
2009-08-25 08:12:20 51°26.319 2°45.989 -999 -999 -999 -999 -999
2009-08-25 08:12:30 51°26.349 2°45.968 -999 -999 -999 -999 -999
2009-08-25 08:12:40 51°26.378 2°45.946 -999 -999 -999 -999 -999
2009-08-25 08:12:50 51°26.407 2°45.926 -999 -999 -999 -999 -999
2009-08-25 08:13:00 51°26.437 2°45.906 -999 -999 -999 -999 -999
2009-08-25 08:13:10 51°26.467 2°45.887 -999 -999 -999 -999 -999
2009-08-25 08:13:20 51°26.497 2°45.867 -999 -999 -999 -999 -999
2009-08-25 08:13:30 51°26.526 2°45.847 -999 -999 -999 -999 -999
2009-08-25 08:13:40 51°26.556 2°45.826 -999 -999 -999 -999 -999
2009-08-25 08:13:50 51°26.585 2°45.806 -999 -999 -999 -999 -999
2009-08-25 08:14:00 51°26.614 2°45.786 -999 -999 -999 -999 -999
2009-08-25 08:14:10 51°26.644 2°45.765 -999 -999 -999 -999 -999
2009-08-25 08:14:20 51°26.673 2°45.745 -999 -999 -999 -999 -999
2009-08-25 08:14:30 51°26.703 2°45.725 -999 -999 -999 -999 -999
2009-08-25 08:14:40 51°26.732 2°45.705 -999 -999 -999 -999 -999
2009-08-25 08:14:50 51°26.762 2°45.684 -999 -999 -999 -999 -999
2009-08-25 08:15:00 51°26.791 2°45.665 -999 -999 -999 -999 -999
2009-08-25 08:15:10 51°26.82 2°45.645 -999 -999 -999 -999 -999
2009-08-25 08:15:20 51°26.85 2°45.624 -999 -999 -999 -999 -999
2009-08-25 08:15:30 51°26.879 2°45.603 -999 -999 -999 -999 -999
2009-08-25 08:15:40 51°26.909 2°45.583 -999 -999 -999 -999 -999
2009-08-25 08:15:50 51°26.938 2°45.562 -999 -999 -999 -999 -999
2009-08-25 08:16:00 51°26.968 2°45.542 -999 -999 -999 -999 -999
2009-08-25 08:16:10 51°26.997 2°45.522 -999 -999 -999 -999 -999
2009-08-25 08:16:20 51°27.027 2°45.501 -999 -999 -999 -999 -999
2009-08-25 08:16:30 51°27.056 2°45.48 -999 -999 -999 -999 -999
2009-08-25 08:16:40 51°27.086 2°45.46 -999 -999 -999 -999 -999
2009-08-25 08:16:50 51°27.115 2°45.439 -999 -999 -999 -999 -999
2009-08-25 08:17:00 51°27.145 2°45.418 -999 -999 -999 -999 -999
2009-08-25 08:17:10 51°27.174 2°45.397 -999 -999 -999 -999 -999
2009-08-25 08:17:20 51°27.204 2°45.376 -999 -999 -999 -999 -999
2009-08-25 08:17:30 51°27.233 2°45.355 -999 -999 -999 -999 -999
2009-08-25 08:17:40 51°27.263 2°45.335 -999 -999 -999 -999 -999
2009-08-25 08:17:50 51°27.292 2°45.314 -999 -999 -999 -999 -999
2009-08-25 08:18:00 51°27.322 2°45.293 -999 -999 -999 -999 -999
2009-08-25 08:18:10 51°27.352 2°45.273 -999 -999 -999 -999 -999
2009-08-25 08:18:20 51°27.381 2°45.253 -999 -999 -999 -999 -999
2009-08-25 08:18:30 51°27.411 2°45.233 -999 -999 -999 -999 -999
2009-08-25 08:18:40 51°27.441 2°45.213 -999 -999 -999 -999 -999
2009-08-25 08:18:50 51°27.47 2°45.192 -999 -999 -999 -999 -999
2009-08-25 08:19:00 51°27.5 2°45.172 -999 -999 -999 -999 -999
2009-08-25 08:19:10 51°27.529 2°45.152 -999 -999 -999 -999 -999
2009-08-25 08:19:20 51°27.559 2°45.132 -999 -999 -999 -999 -999
2009-08-25 08:19:30 51°27.588 2°45.113 -999 -999 -999 -999 -999
2009-08-25 08:19:40 51°27.618 2°45.093 -999 -999 -999 -999 -999
2009-08-25 08:19:50 51°27.648 2°45.073 -999 -999 -999 -999 -999
2009-08-25 08:20:00 51°27.677 2°45.053 -999 -999 -999 -999 -999
2009-08-25 08:20:10 51°27.706 2°45.033 -999 -999 -999 -999 -999
2009-08-25 08:20:20 51°27.735 2°45.012 -999 -999 -999 -999 -999
2009-08-25 08:20:30 51°27.765 2°44.991 -999 -999 -999 -999 -999
2009-08-25 08:20:40 51°27.794 2°44.971 -999 -999 -999 -999 -999
2009-08-25 08:20:50 51°27.823 2°44.951 -999 -999 -999 -999 -999
2009-08-25 08:21:00 51°27.852 2°44.931 -999 -999 -999 -999 -999
2009-08-25 08:21:10 51°27.882 2°44.911 -999 -999 -999 -999 -999
2009-08-25 08:21:20 51°27.911 2°44.89 -999 -999 -999 -999 -999
2009-08-25 08:21:30 51°27.94 2°44.871 -999 -999 -999 -999 -999
2009-08-25 08:21:40 51°27.969 2°44.85 -999 -999 -999 -999 -999
2009-08-25 08:21:50 51°27.999 2°44.829 -999 -999 -999 -999 -999
2009-08-25 08:22:00 51°28.028 2°44.809 -999 -999 -999 -999 -999
2009-08-25 08:22:10 51°28.057 2°44.787 -999 -999 -999 -999 -999
2009-08-25 08:22:20 51°28.085 2°44.765 -999 -999 -999 -999 -999
2009-08-25 08:22:30 51°28.114 2°44.744 -999 -999 -999 -999 -999
2009-08-25 08:22:40 51°28.141 2°44.725 -999 -999 -999 -999 -999
2009-08-25 08:22:50 51°28.17 2°44.705 -999 -999 -999 -999 -999
2009-08-25 08:23:00 51°28.202 2°44.682 -999 -999 -999 -999 -999
2009-08-25 08:23:10 51°28.232 2°44.662 -999 -999 -999 -999 -999
2009-08-25 08:23:20 51°28.261 2°44.641 -999 -999 -999 -999 -999
2009-08-25 08:23:30 51°28.291 2°44.621 -999 -999 -999 -999 -999
2009-08-25 08:23:40 51°28.32 2°44.6 -999 -999 -999 -999 -999
2009-08-25 08:23:50 51°28.35 2°44.578 -999 -999 -999 -999 -999
2009-08-25 08:24:00 51°28.379 2°44.558 -999 -999 -999 -999 -999
2009-08-25 08:24:10 51°28.408 2°44.537 -999 -999 -999 -999 -999
2009-08-25 08:24:20 51°28.438 2°44.516 -999 -999 -999 -999 -999
2009-08-25 08:24:30 51°28.467 2°44.495 -999 -999 -999 -999 -999
2009-08-25 08:24:40 51°28.496 2°44.474 -999 -999 -999 -999 -999
2009-08-25 08:24:50 51°28.526 2°44.453 -999 -999 -999 -999 -999
2009-08-25 08:25:00 51°28.555 2°44.433 -999 -999 -999 -999 -999
2009-08-25 08:25:10 51°28.585 2°44.412 -999 -999 -999 -999 -999
2009-08-25 08:25:20 51°28.614 2°44.393 -999 -999 -999 -999 -999
2009-08-25 08:25:30 51°28.644 2°44.373 -999 -999 -999 -999 -999
2009-08-25 08:25:40 51°28.673 2°44.352 -999 -999 -999 -999 -999
2009-08-25 08:25:50 51°28.703 2°44.333 -999 -999 -999 -999 -999
2009-08-25 08:26:00 51°28.732 2°44.313 -999 -999 -999 -999 -999
2009-08-25 08:26:10 51°28.761 2°44.293 -999 -999 -999 -999 -999
2009-08-25 08:26:20 51°28.791 2°44.273 -999 -999 -999 -999 -999
2009-08-25 08:26:30 51°28.82 2°44.252 -999 -999 -999 -999 -999
2009-08-25 08:26:40 51°28.849 2°44.232 -999 -999 -999 -999 -999
2009-08-25 08:26:50 51°28.878 2°44.211 -999 -999 -999 -999 -999
2009-08-25 08:27:00 51°28.907 2°44.191 -999 -999 -999 -999 -999
2009-08-25 08:27:10 51°28.936 2°44.171 -999 -999 -999 -999 -999
2009-08-25 08:27:20 51°28.965 2°44.151 -999 -999 -999 -999 -999
2009-08-25 08:27:30 51°28.995 2°44.131 -999 -999 -999 -999 -999
2009-08-25 08:27:40 51°29.024 2°44.111 -999 -999 -999 -999 -999
2009-08-25 08:27:50 51°29.053 2°44.091 -999 -999 -999 -999 -999
2009-08-25 08:28:00 51°29.083 2°44.072 -999 -999 -999 -999 -999
2009-08-25 08:28:10 51°29.112 2°44.053 -999 -999 -999 -999 -999
2009-08-25 08:28:20 51°29.142 2°44.034 -999 -999 -999 -999 -999
2009-08-25 08:28:30 51°29.172 2°44.014 -999 -999 -999 -999 -999
2009-08-25 08:28:40 51°29.201 2°43.995 -999 -999 -999 -999 -999
2009-08-25 08:28:50 51°29.231 2°43.975 -999 -999 -999 -999 -999
2009-08-25 08:29:00 51°29.26 2°43.955 -999 -999 -999 -999 -999
2009-08-25 08:29:10 51°29.29 2°43.936 -999 -999 -999 -999 -999
2009-08-25 08:29:20 51°29.319 2°43.917 -999 -999 -999 -999 -999
2009-08-25 08:29:30 51°29.349 2°43.897 -999 -999 -999 -999 -999
2009-08-25 08:29:40 51°29.378 2°43.877 -999 -999 -999 -999 -999
2009-08-25 08:29:50 51°29.408 2°43.857 -999 -999 -999 -999 -999
2009-08-25 08:30:00 51°29.438 2°43.839 -999 -999 -999 -999 -999
2009-08-25 08:30:10 51°29.467 2°43.82 -999 -999 -999 -999 -999
2009-08-25 08:30:20 51°29.497 2°43.8 -999 -999 -999 -999 -999
2009-08-25 08:30:30 51°29.526 2°43.78 -999 -999 -999 -999 -999
2009-08-25 08:30:40 51°29.555 2°43.761 -999 -999 -999 -999 -999
2009-08-25 08:30:50 51°29.584 2°43.74 -999 -999 -999 -999 -999
2009-08-25 08:31:00 51°29.614 2°43.721 -999 -999 -999 -999 -999
2009-08-25 08:31:10 51°29.643 2°43.7 -999 -999 -999 -999 -999
2009-08-25 08:31:20 51°29.672 2°43.681 -999 -999 -999 -999 -999
2009-08-25 08:31:30 51°29.702 2°43.663 -999 -999 -999 -999 -999
2009-08-25 08:31:40 51°29.732 2°43.646 -999 -999 -999 -999 -999
2009-08-25 08:31:50 51°29.762 2°43.63 -999 -999 -999 -999 -999
2009-08-25 08:32:00 51°29.793 2°43.617 -999 -999 -999 -999 -999
2009-08-25 08:32:10 51°29.823 2°43.606 -999 -999 -999 -999 -999
2009-08-25 08:32:20 51°29.854 2°43.595 -999 -999 -999 -999 -999
2009-08-25 08:32:30 51°29.885 2°43.586 -999 -999 -999 -999 -999
2009-08-25 08:32:40 51°29.916 2°43.577 -999 -999 -999 -999 -999
2009-08-25 08:32:50 51°29.947 2°43.57 -999 -999 -999 -999 -999
2009-08-25 08:33:00 51°29.978 2°43.566 -999 -999 -999 -999 -999
2009-08-25 08:33:10 51°30.01 2°43.565 -999 -999 -999 -999 -999
2009-08-25 08:33:20 51°30.041 2°43.565 -999 -999 -999 -999 -999
2009-08-25 08:33:30 51°30.072 2°43.566 -999 -999 -999 -999 -999
2009-08-25 08:33:40 51°30.103 2°43.569 -999 -999 -999 -999 -999
2009-08-25 08:33:50 51°30.134 2°43.573 -999 -999 -999 -999 -999
2009-08-25 08:34:00 51°30.165 2°43.579 -999 -999 -999 -999 -999
2009-08-25 08:34:10 51°30.196 2°43.587 -999 -999 -999 -999 -999
2009-08-25 08:34:20 51°30.226 2°43.598 -999 -999 -999 -999 -999
2009-08-25 08:34:30 51°30.257 2°43.609 -999 -999 -999 -999 -999
2009-08-25 08:34:40 51°30.287 2°43.622 -999 -999 -999 -999 -999
2009-08-25 08:34:50 51°30.316 2°43.637 -999 -999 -999 -999 -999
2009-08-25 08:35:00 51°30.346 2°43.653 -999 -999 -999 -999 -999
2009-08-25 08:35:10 51°30.375 2°43.669 -999 -999 -999 -999 -999
2009-08-25 08:35:20 51°30.405 2°43.685 -999 -999 -999 -999 -999
2009-08-25 08:35:30 51°30.434 2°43.701 -999 -999 -999 -999 -999
2009-08-25 08:35:40 51°30.463 2°43.717 -999 -999 -999 -999 -999
2009-08-25 08:35:50 51°30.493 2°43.733 -999 -999 -999 -999 -999
2009-08-25 08:36:00 51°30.522 2°43.748 -999 -999 -999 -999 -999
2009-08-25 08:36:10 51°30.552 2°43.762 -999 -999 -999 -999 -999
2009-08-25 08:36:20 51°30.581 2°43.778 -999 -999 -999 -999 -999
2009-08-25 08:36:30 51°30.611 2°43.793 -999 -999 -999 -999 -999
2009-08-25 08:36:40 51°30.641 2°43.808 -999 -999 -999 -999 -999
2009-08-25 08:36:50 51°30.67 2°43.824 -999 -999 -999 -999 -999
2009-08-25 08:37:00 51°30.7 2°43.839 -999 -999 -999 -999 -999
2009-08-25 08:37:10 51°30.729 2°43.854 -999 -999 -999 -999 -999
2009-08-25 08:37:20 51°30.759 2°43.868 -999 -999 -999 -999 -999
2009-08-25 08:37:30 51°30.788 2°43.883 -999 -999 -999 -999 -999
2009-08-25 08:37:40 51°30.818 2°43.898 -999 -999 -999 -999 -999
2009-08-25 08:37:50 51°30.848 2°43.912 -999 -999 -999 -999 -999
2009-08-25 08:38:00 51°30.877 2°43.926 -999 -999 -999 -999 -999
2009-08-25 08:38:10 51°30.907 2°43.94 -999 -999 -999 -999 -999
2009-08-25 08:38:20 51°30.936 2°43.955 -999 -999 -999 -999 -999
2009-08-25 08:38:30 51°30.966 2°43.97 -999 -999 -999 -999 -999
2009-08-25 08:38:40 51°30.996 2°43.984 -999 -999 -999 -999 -999
2009-08-25 08:38:50 51°31.025 2°43.999 -999 -999 -999 -999 -999
2009-08-25 08:39:00 51°31.055 2°44.013 -999 -999 -999 -999 -999
2009-08-25 08:39:10 51°31.085 2°44.027 -999 -999 -999 -999 -999
2009-08-25 08:39:20 51°31.115 2°44.041 -999 -999 -999 -999 -999
2009-08-25 08:39:30 51°31.145 2°44.056 -999 -999 -999 -999 -999
2009-08-25 08:39:40 51°31.174 2°44.07 -999 -999 -999 -999 -999
2009-08-25 08:39:50 51°31.204 2°44.083 -999 -999 -999 -999 -999
2009-08-25 08:40:00 51°31.233 2°44.097 -999 -999 -999 -999 -999
2009-08-25 08:40:10 51°31.263 2°44.111 -999 -999 -999 -999 -999
2009-08-25 08:40:20 51°31.293 2°44.124 -999 -999 -999 -999 -999
2009-08-25 08:40:30 51°31.322 2°44.137 -999 -999 -999 -999 -999
2009-08-25 08:40:40 51°31.352 2°44.15 -999 -999 -999 -999 -999
2009-08-25 08:40:50 51°31.381 2°44.163 -999 -999 -999 -999 -999
2009-08-25 08:41:00 51°31.411 2°44.176 -999 -999 -999 -999 -999
2009-08-25 08:41:10 51°31.441 2°44.189 -999 -999 -999 -999 -999
2009-08-25 08:41:20 51°31.47 2°44.203 -999 -999 -999 -999 -999
2009-08-25 08:41:30 51°31.5 2°44.217 -999 -999 -999 -999 -999
2009-08-25 08:41:40 51°31.529 2°44.23 -999 -999 -999 -999 -999
2009-08-25 08:41:50 51°31.559 2°44.244 -999 -999 -999 -999 -999
2009-08-25 08:42:00 51°31.588 2°44.258 -999 -999 -999 -999 -999
2009-08-25 08:42:10 51°31.617 2°44.272 -999 -999 -999 -999 -999
2009-08-25 08:42:20 51°31.647 2°44.286 -999 -999 -999 -999 -999
2009-08-25 08:42:30 51°31.676 2°44.301 -999 -999 -999 -999 -999
2009-08-25 08:42:40 51°31.705 2°44.315 -999 -999 -999 -999 -999
2009-08-25 08:42:50 51°31.734 2°44.33 -999 -999 -999 -999 -999
2009-08-25 08:43:00 51°31.763 2°44.345 -999 -999 -999 -999 -999
2009-08-25 08:43:10 51°31.792 2°44.361 -999 -999 -999 -999 -999
2009-08-25 08:43:20 51°31.821 2°44.377 -999 -999 -999 -999 -999
2009-08-25 08:43:30 51°31.851 2°44.392 -999 -999 -999 -999 -999
2009-08-25 08:43:40 51°31.88 2°44.408 -999 -999 -999 -999 -999
2009-08-25 08:43:50 51°31.908 2°44.424 -999 -999 -999 -999 -999
2009-08-25 08:44:00 51°31.938 2°44.438 -999 -999 -999 -999 -999
2009-08-25 08:44:10 51°31.967 2°44.453 -999 -999 -999 -999 -999
2009-08-25 08:44:20 51°31.996 2°44.468 -999 -999 -999 -999 -999
2009-08-25 08:44:30 51°32.025 2°44.485 -999 -999 -999 -999 -999
2009-08-25 08:44:40 51°32.053 2°44.501 -999 -999 -999 -999 -999
2009-08-25 08:44:50 51°32.082 2°44.516 -999 -999 -999 -999 -999
2009-08-25 08:45:00 51°32.111 2°44.532 -999 -999 -999 -999 -999
2009-08-25 08:45:10 51°32.141 2°44.548 -999 -999 -999 -999 -999
2009-08-25 08:45:20 51°32.17 2°44.563 -999 -999 -999 -999 -999
2009-08-25 08:45:30 51°32.199 2°44.577 -999 -999 -999 -999 -999
2009-08-25 08:45:40 51°32.228 2°44.593 -999 -999 -999 -999 -999
2009-08-25 08:45:50 51°32.257 2°44.608 -999 -999 -999 -999 -999
2009-08-25 08:46:00 51°32.286 2°44.623 -999 -999 -999 -999 -999
2009-08-25 08:46:10 51°32.315 2°44.639 -999 -999 -999 -999 -999
2009-08-25 08:46:20 51°32.343 2°44.655 -999 -999 -999 -999 -999
2009-08-25 08:46:30 51°32.372 2°44.671 -999 -999 -999 -999 -999
2009-08-25 08:46:40 51°32.4 2°44.688 -999 -999 -999 -999 -999
2009-08-25 08:46:50 51°32.429 2°44.704 -999 -999 -999 -999 -999
2009-08-25 08:47:00 51°32.458 2°44.72 -999 -999 -999 -999 -999
2009-08-25 08:47:10 51°32.486 2°44.737 -999 -999 -999 -999 -999
2009-08-25 08:47:20 51°32.515 2°44.753 -999 -999 -999 -999 -999
2009-08-25 08:47:30 51°32.544 2°44.768 -999 -999 -999 -999 -999
2009-08-25 08:47:40 51°32.573 2°44.784 -999 -999 -999 -999 -999
2009-08-25 08:47:50 51°32.602 2°44.799 -999 -999 -999 -999 -999
2009-08-25 08:48:00 51°32.631 2°44.814 -999 -999 -999 -999 -999
2009-08-25 08:48:10 51°32.66 2°44.829 -999 -999 -999 -999 -999
2009-08-25 08:48:20 51°32.689 2°44.845 -999 -999 -999 -999 -999
2009-08-25 08:48:30 51°32.717 2°44.861 -999 -999 -999 -999 -999
2009-08-25 08:48:40 51°32.746 2°44.876 -999 -999 -999 -999 -999
2009-08-25 08:48:50 51°32.775 2°44.892 -999 -999 -999 -999 -999
2009-08-25 08:49:00 51°32.804 2°44.908 -999 -999 -999 -999 -999
2009-08-25 08:49:10 51°32.833 2°44.924 -999 -999 -999 -999 -999
2009-08-25 08:49:20 51°32.862 2°44.94 -999 -999 -999 -999 -999
2009-08-25 08:49:30 51°32.89 2°44.957 -999 -999 -999 -999 -999
2009-08-25 08:49:40 51°32.919 2°44.974 -999 -999 -999 -999 -999
2009-08-25 08:49:50 51°32.947 2°44.989 -999 -999 -999 -999 -999
2009-08-25 08:50:00 51°32.976 2°45.005 -999 -999 -999 -999 -999
2009-08-25 08:50:10 51°33.005 2°45.021 -999 -999 -999 -999 -999
2009-08-25 08:50:20 51°33.033 2°45.037 -999 -999 -999 -999 -999
2009-08-25 08:50:30 51°33.062 2°45.053 -999 -999 -999 -999 -999
2009-08-25 08:50:40 51°33.091 2°45.069 -999 -999 -999 -999 -999
2009-08-25 08:50:50 51°33.12 2°45.085 -999 -999 -999 -999 -999
2009-08-25 08:51:00 51°33.149 2°45.101 -999 -999 -999 -999 -999
2009-08-25 08:51:10 51°33.178 2°45.117 -999 -999 -999 -999 -999
2009-08-25 08:51:20 51°33.207 2°45.132 -999 -999 -999 -999 -999
2009-08-25 08:51:30 51°33.235 2°45.149 -999 -999 -999 -999 -999
2009-08-25 08:51:40 51°33.264 2°45.165 -999 -999 -999 -999 -999
2009-08-25 08:51:50 51°33.293 2°45.181 -999 -999 -999 -999 -999
2009-08-25 08:52:00 51°33.322 2°45.197 -999 -999 -999 -999 -999
2009-08-25 08:52:10 51°33.351 2°45.213 -999 -999 -999 -999 -999
2009-08-25 08:52:20 51°33.38 2°45.229 -999 -999 -999 -999 -999
2009-08-25 08:52:30 51°33.408 2°45.245 -999 -999 -999 -999 -999
2009-08-25 08:52:40 51°33.437 2°45.261 -999 -999 -999 -999 -999
2009-08-25 08:52:50 51°33.466 2°45.277 -999 -999 -999 -999 -999
2009-08-25 08:53:00 51°33.495 2°45.293 -999 -999 -999 -999 -999
2009-08-25 08:53:10 51°33.524 2°45.308 -999 -999 -999 -999 -999
2009-08-25 08:53:20 51°33.553 2°45.323 -999 -999 -999 -999 -999
2009-08-25 08:53:30 51°33.582 2°45.338 -999 -999 -999 -999 -999
2009-08-25 08:53:40 51°33.611 2°45.353 -999 -999 -999 -999 -999
2009-08-25 08:53:50 51°33.64 2°45.369 -999 -999 -999 -999 -999
2009-08-25 08:54:00 51°33.668 2°45.385 -999 -999 -999 -999 -999
2009-08-25 08:54:10 51°33.697 2°45.402 -999 -999 -999 -999 -999
2009-08-25 08:54:20 51°33.726 2°45.419 -999 -999 -999 -999 -999
2009-08-25 08:54:30 51°33.755 2°45.435 -999 -999 -999 -999 -999
2009-08-25 08:54:40 51°33.783 2°45.45 -999 -999 -999 -999 -999
2009-08-25 08:54:50 51°33.812 2°45.466 -999 -999 -999 -999 -999
2009-08-25 08:55:00 51°33.841 2°45.481 -999 -999 -999 -999 -999
2009-08-25 08:55:10 51°33.87 2°45.496 -999 -999 -999 -999 -999
2009-08-25 08:55:20 51°33.899 2°45.512 -999 -999 -999 -999 -999
2009-08-25 08:55:30 51°33.927 2°45.528 -999 -999 -999 -999 -999
2009-08-25 08:55:40 51°33.956 2°45.545 -999 -999 -999 -999 -999
2009-08-25 08:55:50 51°33.985 2°45.561 -999 -999 -999 -999 -999
2009-08-25 08:56:00 51°34.014 2°45.576 -999 -999 -999 -999 -999
2009-08-25 08:56:10 51°34.042 2°45.592 -999 -999 -999 -999 -999
2009-08-25 08:56:20 51°34.071 2°45.608 -999 -999 -999 -999 -999
2009-08-25 08:56:30 51°34.099 2°45.625 -999 -999 -999 -999 -999
2009-08-25 08:56:40 51°34.128 2°45.641 -999 -999 -999 -999 -999
2009-08-25 08:56:50 51°34.156 2°45.658 -999 -999 -999 -999 -999
2009-08-25 08:57:00 51°34.185 2°45.675 -999 -999 -999 -999 -999
2009-08-25 08:57:10 51°34.213 2°45.692 -999 -999 -999 -999 -999
2009-08-25 08:57:20 51°34.242 2°45.708 -999 -999 -999 -999 -999
2009-08-25 08:57:30 51°34.271 2°45.724 -999 -999 -999 -999 -999
2009-08-25 08:57:40 51°34.3 2°45.739 -999 -999 -999 -999 -999
2009-08-25 08:57:50 51°34.329 2°45.755 -999 -999 -999 -999 -999
2009-08-25 08:58:00 51°34.358 2°45.77 -999 -999 -999 -999 -999
2009-08-25 08:58:10 51°34.387 2°45.786 -999 -999 -999 -999 -999
2009-08-25 08:58:20 51°34.415 2°45.802 -999 -999 -999 -999 -999
2009-08-25 08:58:30 51°34.444 2°45.819 -999 -999 -999 -999 -999
2009-08-25 08:58:40 51°34.473 2°45.835 -999 -999 -999 -999 -999
2009-08-25 08:58:50 51°34.502 2°45.851 -999 -999 -999 -999 -999
2009-08-25 08:59:00 51°34.531 2°45.867 -999 -999 -999 -999 -999
2009-08-25 08:59:10 51°34.559 2°45.883 -999 -999 -999 -999 -999
2009-08-25 08:59:20 51°34.588 2°45.899 -999 -999 -999 -999 -999
2009-08-25 08:59:30 51°34.616 2°45.916 -999 -999 -999 -999 -999
2009-08-25 08:59:40 51°34.645 2°45.932 -999 -999 -999 -999 -999
2009-08-25 08:59:50 51°34.674 2°45.95 -999 -999 -999 -999 -999
2009-08-25 09:00:00 51°34.702 2°45.966 -999 -999 -999 -999 -999
2009-08-25 09:00:10 51°34.727 2°45.98 -999 -999 -999 -999 -999
2009-08-25 09:00:20 51°34.752 2°45.994 -999 -999 -999 -999 -999
2009-08-25 09:00:30 51°34.778 2°46.009 -999 -999 -999 -999 -999
2009-08-25 09:00:40 51°34.805 2°46.025 -999 -999 -999 -999 -999
2009-08-25 09:00:50 51°34.833 2°46.04 -999 -999 -999 -999 -999
2009-08-25 09:01:00 51°34.861 2°46.055 -999 -999 -999 -999 -999
2009-08-25 09:01:10 51°34.89 2°46.071 -999 -999 -999 -999 -999
2009-08-25 09:01:20 51°34.919 2°46.087 -999 -999 -999 -999 -999
2009-08-25 09:01:30 51°34.947 2°46.103 -999 -999 -999 -999 -999
2009-08-25 09:01:40 51°34.976 2°46.119 -999 -999 -999 -999 -999
2009-08-25 09:01:50 51°35.005 2°46.135 -999 -999 -999 -999 -999
2009-08-25 09:02:00 51°35.034 2°46.151 -999 -999 -999 -999 -999
2009-08-25 09:02:10 51°35.063 2°46.167 -999 -999 -999 -999 -999
2009-08-25 09:02:20 51°35.092 2°46.182 -999 -999 -999 -999 -999
2009-08-25 09:02:30 51°35.121 2°46.198 -999 -999 -999 -999 -999
2009-08-25 09:02:40 51°35.15 2°46.214 -999 -999 -999 -999 -999
2009-08-25 09:02:50 51°35.179 2°46.23 -999 -999 -999 -999 -999
2009-08-25 09:03:00 51°35.207 2°46.246 -999 -999 -999 -999 -999
2009-08-25 09:03:10 51°35.236 2°46.262 -999 -999 -999 -999 -999
2009-08-25 09:03:20 51°35.265 2°46.278 -999 -999 -999 -999 -999
2009-08-25 09:03:30 51°35.293 2°46.294 -999 -999 -999 -999 -999
2009-08-25 09:03:40 51°35.322 2°46.31 -999 -999 -999 -999 -999
2009-08-25 09:03:50 51°35.351 2°46.326 -999 -999 -999 -999 -999
2009-08-25 09:04:00 51°35.38 2°46.342 -999 -999 -999 -999 -999
2009-08-25 09:04:10 51°35.409 2°46.359 -999 -999 -999 -999 -999
2009-08-25 09:04:20 51°35.437 2°46.375 -999 -999 -999 -999 -999
2009-08-25 09:04:30 51°35.466 2°46.391 -999 -999 -999 -999 -999
2009-08-25 09:04:40 51°35.494 2°46.407 -999 -999 -999 -999 -999
2009-08-25 09:04:50 51°35.523 2°46.422 -999 -999 -999 -999 -999
2009-08-25 09:05:00 51°35.552 2°46.437 -999 -999 -999 -999 -999
2009-08-25 09:05:10 51°35.581 2°46.452 -999 -999 -999 -999 -999
2009-08-25 09:05:20 51°35.61 2°46.468 -999 -999 -999 -999 -999
2009-08-25 09:05:30 51°35.638 2°46.483 -999 -999 -999 -999 -999
2009-08-25 09:05:40 51°35.667 2°46.498 -999 -999 -999 -999 -999
2009-08-25 09:05:50 51°35.696 2°46.513 -999 -999 -999 -999 -999
2009-08-25 09:06:00 51°35.725 2°46.529 -999 -999 -999 -999 -999
2009-08-25 09:06:10 51°35.753 2°46.544 -999 -999 -999 -999 -999
2009-08-25 09:06:20 51°35.782 2°46.56 -999 -999 -999 -999 -999
2009-08-25 09:06:30 51°35.811 2°46.575 -999 -999 -999 -999 -999
2009-08-25 09:06:40 51°35.839 2°46.589 -999 -999 -999 -999 -999
2009-08-25 09:06:50 51°35.868 2°46.604 -999 -999 -999 -999 -999
2009-08-25 09:07:00 51°35.897 2°46.619 -999 -999 -999 -999 -999
2009-08-25 09:07:10 51°35.925 2°46.634 -999 -999 -999 -999 -999
2009-08-25 09:07:20 51°35.954 2°46.649 -999 -999 -999 -999 -999
2009-08-25 09:07:30 51°35.983 2°46.664 -999 -999 -999 -999 -999
2009-08-25 09:07:40 51°36.012 2°46.678 -999 -999 -999 -999 -999
2009-08-25 09:07:50 51°36.041 2°46.693 -999 -999 -999 -999 -999
2009-08-25 09:08:00 51°36.07 2°46.706 -999 -999 -999 -999 -999
2009-08-25 09:08:10 51°36.099 2°46.72 -999 -999 -999 -999 -999
2009-08-25 09:08:20 51°36.128 2°46.734 -999 -999 -999 -999 -999
2009-08-25 09:08:30 51°36.156 2°46.749 -999 -999 -999 -999 -999
2009-08-25 09:08:40 51°36.184 2°46.763 -999 -999 -999 -999 -999
2009-08-25 09:08:50 51°36.213 2°46.777 -999 -999 -999 -999 -999
2009-08-25 09:09:00 51°36.242 2°46.79 -999 -999 -999 -999 -999
2009-08-25 09:09:10 51°36.271 2°46.804 -999 -999 -999 -999 -999
2009-08-25 09:09:20 51°36.3 2°46.818 -999 -999 -999 -999 -999
2009-08-25 09:09:30 51°36.329 2°46.832 -999 -999 -999 -999 -999
2009-08-25 09:09:40 51°36.358 2°46.847 -999 -999 -999 -999 -999
2009-08-25 09:09:50 51°36.387 2°46.861 -999 -999 -999 -999 -999
2009-08-25 09:10:00 51°36.416 2°46.877 -999 -999 -999 -999 -999
2009-08-25 09:10:10 51°36.444 2°46.892 -999 -999 -999 -999 -999
2009-08-25 09:10:20 51°36.473 2°46.906 -999 -999 -999 -999 -999
2009-08-25 09:10:30 51°36.502 2°46.919 -999 -999 -999 -999 -999
2009-08-25 09:10:40 51°36.531 2°46.934 -999 -999 -999 -999 -999
2009-08-25 09:10:50 51°36.56 2°46.949 -999 -999 -999 -999 -999
2009-08-25 09:11:00 51°36.588 2°46.963 -999 -999 -999 -999 -999
2009-08-25 09:11:10 51°36.617 2°46.978 -999 -999 -999 -999 -999
2009-08-25 09:11:20 51°36.645 2°46.991 -999 -999 -999 -999 -999
2009-08-25 09:11:30 51°36.674 2°47.004 -999 -999 -999 -999 -999
2009-08-25 09:11:40 51°36.703 2°47.018 -999 -999 -999 -999 -999
2009-08-25 09:11:50 51°36.732 2°47.031 -999 -999 -999 -999 -999
2009-08-25 09:12:00 51°36.76 2°47.045 -999 -999 -999 -999 -999
2009-08-25 09:12:10 51°36.789 2°47.059 -999 -999 -999 -999 -999
2009-08-25 09:12:20 51°36.818 2°47.072 -999 -999 -999 -999 -999
2009-08-25 09:12:30 51°36.847 2°47.086 -999 -999 -999 -999 -999
2009-08-25 09:12:40 51°36.875 2°47.099 -999 -999 -999 -999 -999
2009-08-25 09:12:50 51°36.904 2°47.112 -999 -999 -999 -999 -999
2009-08-25 09:13:00 51°36.933 2°47.125 -999 -999 -999 -999 -999
2009-08-25 09:13:10 51°36.961 2°47.139 -999 -999 -999 -999 -999
2009-08-25 09:13:20 51°36.99 2°47.153 -999 -999 -999 -999 -999
2009-08-25 09:13:30 51°37.019 2°47.167 -999 -999 -999 -999 -999
2009-08-25 09:13:40 51°37.047 2°47.182 -999 -999 -999 -999 -999
2009-08-25 09:13:50 51°37.076 2°47.198 -999 -999 -999 -999 -999
2009-08-25 09:14:00 51°37.104 2°47.213 -999 -999 -999 -999 -999
2009-08-25 09:14:10 51°37.132 2°47.228 -999 -999 -999 -999 -999
2009-08-25 09:14:20 51°37.16 2°47.244 -999 -999 -999 -999 -999
2009-08-25 09:14:30 51°37.188 2°47.259 -999 -999 -999 -999 -999
2009-08-25 09:14:40 51°37.217 2°47.274 -999 -999 -999 -999 -999
2009-08-25 09:14:50 51°37.245 2°47.289 -999 -999 -999 -999 -999
2009-08-25 09:15:00 51°37.273 2°47.304 -999 -999 -999 -999 -999
2009-08-25 09:15:10 51°37.301 2°47.319 -999 -999 -999 -999 -999
2009-08-25 09:15:20 51°37.329 2°47.336 -999 -999 -999 -999 -999
2009-08-25 09:15:30 51°37.357 2°47.351 -999 -999 -999 -999 -999
2009-08-25 09:15:40 51°37.386 2°47.367 -999 -999 -999 -999 -999
2009-08-25 09:15:50 51°37.414 2°47.381 -999 -999 -999 -999 -999
2009-08-25 09:16:00 51°37.442 2°47.397 -999 -999 -999 -999 -999
2009-08-25 09:16:10 51°37.47 2°47.414 -999 -999 -999 -999 -999
2009-08-25 09:16:20 51°37.498 2°47.429 -999 -999 -999 -999 -999
2009-08-25 09:16:30 51°37.526 2°47.445 -999 -999 -999 -999 -999
2009-08-25 09:16:40 51°37.554 2°47.46 -999 -999 -999 -999 -999
2009-08-25 09:16:50 51°37.582 2°47.475 -999 -999 -999 -999 -999
2009-08-25 09:17:00 51°37.61 2°47.49 -999 -999 -999 -999 -999
2009-08-25 09:17:10 51°37.638 2°47.505 -999 -999 -999 -999 -999
2009-08-25 09:17:20 51°37.666 2°47.521 -999 -999 -999 -999 -999
2009-08-25 09:17:30 51°37.694 2°47.537 -999 -999 -999 -999 -999
2009-08-25 09:17:40 51°37.722 2°47.553 -999 -999 -999 -999 -999
2009-08-25 09:17:50 51°37.75 2°47.568 -999 -999 -999 -999 -999
2009-08-25 09:18:00 51°37.778 2°47.583 -999 -999 -999 -999 -999
2009-08-25 09:18:10 51°37.806 2°47.599 -999 -999 -999 -999 -999
2009-08-25 09:18:20 51°37.834 2°47.615 -999 -999 -999 -999 -999
2009-08-25 09:18:30 51°37.862 2°47.63 -999 -999 -999 -999 -999
2009-08-25 09:18:40 51°37.891 2°47.645 -999 -999 -999 -999 -999
2009-08-25 09:18:50 51°37.919 2°47.66 -999 -999 -999 -999 -999
2009-08-25 09:19:00 51°37.946 2°47.676 -999 -999 -999 -999 -999
2009-08-25 09:19:10 51°37.974 2°47.691 -999 -999 -999 -999 -999
2009-08-25 09:19:20 51°38.002 2°47.705 -999 -999 -999 -999 -999
2009-08-25 09:19:30 51°38.03 2°47.719 -999 -999 -999 -999 -999
2009-08-25 09:19:40 51°38.058 2°47.734 -999 -999 -999 -999 -999
2009-08-25 09:19:50 51°38.087 2°47.75 -999 -999 -999 -999 -999
2009-08-25 09:20:00 51°38.114 2°47.765 -999 -999 -999 -999 -999
2009-08-25 09:20:10 51°38.142 2°47.781 -999 -999 -999 -999 -999
2009-08-25 09:20:20 51°38.17 2°47.796 -999 -999 -999 -999 -999
2009-08-25 09:20:30 51°38.198 2°47.812 -999 -999 -999 -999 -999
2009-08-25 09:20:40 51°38.226 2°47.828 -999 -999 -999 -999 -999
2009-08-25 09:20:50 51°38.253 2°47.844 -999 -999 -999 -999 -999
2009-08-25 09:21:00 51°38.281 2°47.861 -999 -999 -999 -999 -999
2009-08-25 09:21:10 51°38.309 2°47.876 -999 -999 -999 -999 -999
2009-08-25 09:21:20 51°38.337 2°47.891 -999 -999 -999 -999 -999
2009-08-25 09:21:30 51°38.364 2°47.907 -999 -999 -999 -999 -999
2009-08-25 09:21:40 51°38.392 2°47.923 -999 -999 -999 -999 -999
2009-08-25 09:21:50 51°38.42 2°47.939 -999 -999 -999 -999 -999
2009-08-25 09:22:00 51°38.448 2°47.955 -999 -999 -999 -999 -999
2009-08-25 09:22:10 51°38.476 2°47.971 -999 -999 -999 -999 -999
2009-08-25 09:22:20 51°38.503 2°47.987 -999 -999 -999 -999 -999
2009-08-25 09:22:30 51°38.531 2°48.003 -999 -999 -999 -999 -999
2009-08-25 09:22:40 51°38.559 2°48.018 -999 -999 -999 -999 -999
2009-08-25 09:22:50 51°38.586 2°48.035 -999 -999 -999 -999 -999
2009-08-25 09:23:00 51°38.614 2°48.052 -999 -999 -999 -999 -999
2009-08-25 09:23:10 51°38.642 2°48.068 -999 -999 -999 -999 -999
2009-08-25 09:23:20 51°38.67 2°48.082 -999 -999 -999 -999 -999
2009-08-25 09:23:30 51°38.698 2°48.098 -999 -999 -999 -999 -999
2009-08-25 09:23:40 51°38.726 2°48.114 -999 -999 -999 -999 -999
2009-08-25 09:23:50 51°38.754 2°48.13 -999 -999 -999 -999 -999
2009-08-25 09:24:00 51°38.782 2°48.145 -999 -999 -999 -999 -999
2009-08-25 09:24:10 51°38.81 2°48.161 -999 -999 -999 -999 -999
2009-08-25 09:24:20 51°38.838 2°48.177 -999 -999 -999 -999 -999
2009-08-25 09:24:30 51°38.865 2°48.192 -999 -999 -999 -999 -999
2009-08-25 09:24:40 51°38.893 2°48.209 -999 -999 -999 -999 -999
2009-08-25 09:24:50 51°38.921 2°48.224 -999 -999 -999 -999 -999
2009-08-25 09:25:00 51°38.948 2°48.24 -999 -999 -999 -999 -999
2009-08-25 09:25:10 51°38.976 2°48.255 -999 -999 -999 -999 -999
2009-08-25 09:25:20 51°39.004 2°48.271 -999 -999 -999 -999 -999
2009-08-25 09:25:30 51°39.032 2°48.286 -999 -999 -999 -999 -999
2009-08-25 09:25:40 51°39.06 2°48.302 -999 -999 -999 -999 -999
2009-08-25 09:25:50 51°39.087 2°48.318 -999 -999 -999 -999 -999
2009-08-25 09:26:00 51°39.115 2°48.334 -999 -999 -999 -999 -999
2009-08-25 09:26:10 51°39.143 2°48.35 -999 -999 -999 -999 -999
2009-08-25 09:26:20 51°39.171 2°48.367 -999 -999 -999 -999 -999
2009-08-25 09:26:30 51°39.198 2°48.383 -999 -999 -999 -999 -999
2009-08-25 09:26:40 51°39.226 2°48.399 -999 -999 -999 -999 -999
2009-08-25 09:26:50 51°39.253 2°48.416 -999 -999 -999 -999 -999
2009-08-25 09:27:00 51°39.281 2°48.432 -999 -999 -999 -999 -999
2009-08-25 09:27:10 51°39.309 2°48.448 -999 -999 -999 -999 -999
2009-08-25 09:27:20 51°39.337 2°48.464 -999 -999 -999 -999 -999
2009-08-25 09:27:30 51°39.365 2°48.48 -999 -999 -999 -999 -999
2009-08-25 09:27:40 51°39.393 2°48.496 -999 -999 -999 -999 -999
2009-08-25 09:27:50 51°39.42 2°48.511 -999 -999 -999 -999 -999
2009-08-25 09:28:00 51°39.448 2°48.527 -999 -999 -999 -999 -999
2009-08-25 09:28:10 51°39.475 2°48.544 -999 -999 -999 -999 -999
2009-08-25 09:28:20 51°39.503 2°48.558 -999 -999 -999 -999 -999
2009-08-25 09:28:30 51°39.531 2°48.573 -999 -999 -999 -999 -999
2009-08-25 09:28:40 51°39.559 2°48.587 -999 -999 -999 -999 -999
2009-08-25 09:28:50 51°39.586 2°48.603 -999 -999 -999 -999 -999
2009-08-25 09:29:00 51°39.613 2°48.618 -999 -999 -999 -999 -999
2009-08-25 09:29:10 51°39.64 2°48.635 -999 -999 -999 -999 -999
2009-08-25 09:29:20 51°39.668 2°48.65 -999 -999 -999 -999 -999
2009-08-25 09:29:30 51°39.695 2°48.666 -999 -999 -999 -999 -999
2009-08-25 09:29:40 51°39.723 2°48.682 -999 -999 -999 -999 -999
2009-08-25 09:29:50 51°39.75 2°48.698 -999 -999 -999 -999 -999
2009-08-25 09:30:00 51°39.777 2°48.714 -999 -999 -999 -999 -999
2009-08-25 09:30:10 51°39.804 2°48.731 -999 -999 -999 -999 -999
2009-08-25 09:30:20 51°39.832 2°48.748 -999 -999 -999 -999 -999
2009-08-25 09:30:30 51°39.859 2°48.764 -999 -999 -999 -999 -999
2009-08-25 09:30:40 51°39.886 2°48.781 -999 -999 -999 -999 -999
2009-08-25 09:30:50 51°39.914 2°48.798 -999 -999 -999 -999 -999
2009-08-25 09:31:00 51°39.941 2°48.816 -999 -999 -999 -999 -999
2009-08-25 09:31:10 51°39.968 2°48.833 -999 -999 -999 -999 -999
2009-08-25 09:31:20 51°39.995 2°48.85 -999 -999 -999 -999 -999
2009-08-25 09:31:30 51°40.022 2°48.868 -999 -999 -999 -999 -999
2009-08-25 09:31:40 51°40.05 2°48.885 -999 -999 -999 -999 -999
2009-08-25 09:31:50 51°40.077 2°48.903 -999 -999 -999 -999 -999
2009-08-25 09:32:00 51°40.104 2°48.92 -999 -999 -999 -999 -999
2009-08-25 09:32:10 51°40.131 2°48.937 -999 -999 -999 -999 -999
2009-08-25 09:32:20 51°40.158 2°48.954 -999 -999 -999 -999 -999
2009-08-25 09:32:30 51°40.185 2°48.971 -999 -999 -999 -999 -999
2009-08-25 09:32:40 51°40.213 2°48.988 -999 -999 -999 -999 -999
2009-08-25 09:32:50 51°40.24 2°49.005 -999 -999 -999 -999 -999
2009-08-25 09:33:00 51°40.267 2°49.022 -999 -999 -999 -999 -999
2009-08-25 09:33:10 51°40.294 2°49.038 -999 -999 -999 -999 -999
2009-08-25 09:33:20 51°40.322 2°49.055 -999 -999 -999 -999 -999
2009-08-25 09:33:30 51°40.35 2°49.07 -999 -999 -999 -999 -999
2009-08-25 09:33:40 51°40.377 2°49.086 -999 -999 -999 -999 -999
2009-08-25 09:33:50 51°40.404 2°49.102 -999 -999 -999 -999 -999
2009-08-25 09:34:00 51°40.432 2°49.119 -999 -999 -999 -999 -999
2009-08-25 09:34:10 51°40.459 2°49.136 -999 -999 -999 -999 -999
2009-08-25 09:34:20 51°40.486 2°49.153 -999 -999 -999 -999 -999
2009-08-25 09:34:30 51°40.514 2°49.169 -999 -999 -999 -999 -999
2009-08-25 09:34:40 51°40.541 2°49.186 -999 -999 -999 -999 -999
2009-08-25 09:34:50 51°40.568 2°49.202 -999 -999 -999 -999 -999
2009-08-25 09:35:00 51°40.595 2°49.218 -999 -999 -999 -999 -999
2009-08-25 09:35:10 51°40.623 2°49.235 -999 -999 -999 -999 -999
2009-08-25 09:35:20 51°40.65 2°49.251 -999 -999 -999 -999 -999
2009-08-25 09:35:30 51°40.677 2°49.267 -999 -999 -999 -999 -999
2009-08-25 09:35:40 51°40.705 2°49.281 -999 -999 -999 -999 -999
2009-08-25 09:35:50 51°40.733 2°49.292 -999 -999 -999 -999 -999
2009-08-25 09:36:00 51°40.761 2°49.301 -999 -999 -999 -999 -999
2009-08-25 09:36:10 51°40.79 2°49.306 -999 -999 -999 -999 -999
2009-08-25 09:36:20 51°40.82 2°49.309 -999 -999 -999 -999 -999
2009-08-25 09:36:30 51°40.849 2°49.309 -999 -999 -999 -999 -999
2009-08-25 09:36:40 51°40.878 2°49.308 -999 -999 -999 -999 -999
2009-08-25 09:36:50 51°40.907 2°49.303 -999 -999 -999 -999 -999
2009-08-25 09:37:00 51°40.936 2°49.293 -999 -999 -999 -999 -999
2009-08-25 09:37:10 51°40.964 2°49.281 -999 -999 -999 -999 -999
2009-08-25 09:37:20 51°40.993 2°49.267 -999 -999 -999 -999 -999
2009-08-25 09:37:30 51°41.021 2°49.251 -999 -999 -999 -999 -999
2009-08-25 09:37:40 51°41.049 2°49.234 -999 -999 -999 -999 -999
2009-08-25 09:37:50 51°41.076 2°49.21 -999 -999 -999 -999 -999
2009-08-25 09:38:00 51°41.1 2°49.18 -999 -999 -999 -999 -999
2009-08-25 09:38:10 51°41.124 2°49.148 -999 -999 -999 -999 -999
2009-08-25 09:38:20 51°41.147 2°49.114 -999 -999 -999 -999 -999
2009-08-25 09:38:30 51°41.169 2°49.079 -999 -999 -999 -999 -999
2009-08-25 09:38:40 51°41.191 2°49.042 -999 -999 -999 -999 -999
2009-08-25 09:38:50 51°41.214 2°49.006 -999 -999 -999 -999 -999
2009-08-25 09:39:00 51°41.237 2°48.972 -999 -999 -999 -999 -999
2009-08-25 09:39:10 51°41.259 2°48.936 -999 -999 -999 -999 -999
2009-08-25 09:39:20 51°41.28 2°48.897 -999 -999 -999 -999 -999
2009-08-25 09:39:30 51°41.3 2°48.857 -999 -999 -999 -999 -999
2009-08-25 09:39:40 51°41.32 2°48.817 -999 -999 -999 -999 -999
2009-08-25 09:39:50 51°41.341 2°48.779 -999 -999 -999 -999 -999
2009-08-25 09:40:00 51°41.363 2°48.743 -999 -999 -999 -999 -999
2009-08-25 09:40:10 51°41.386 2°48.708 -999 -999 -999 -999 -999
2009-08-25 09:40:20 51°41.408 2°48.672 -999 -999 -999 -999 -999
2009-08-25 09:40:30 51°41.429 2°48.633 -999 -999 -999 -999 -999
2009-08-25 09:40:40 51°41.448 2°48.593 -999 -999 -999 -999 -999
2009-08-25 09:40:50 51°41.466 2°48.55 -999 -999 -999 -999 -999
2009-08-25 09:41:00 51°41.48 2°48.504 -999 -999 -999 -999 -999
2009-08-25 09:41:10 51°41.49 2°48.455 -999 -999 -999 -999 -999
2009-08-25 09:41:20 51°41.496 2°48.403 -999 -999 -999 -999 -999
2009-08-25 09:41:30 51°41.496 2°48.351 -999 -999 -999 -999 -999
2009-08-25 09:41:40 51°41.491 2°48.298 -999 -999 -999 -999 -999
2009-08-25 09:41:50 51°41.481 2°48.248 -999 -999 -999 -999 -999
2009-08-25 09:42:00 51°41.465 2°48.2 -999 -999 -999 -999 -999
2009-08-25 09:42:10 51°41.446 2°48.156 -999 -999 -999 -999 -999
2009-08-25 09:42:20 51°41.422 2°48.118 -999 -999 -999 -999 -999
2009-08-25 09:42:30 51°41.395 2°48.087 -999 -999 -999 -999 -999
2009-08-25 09:42:40 51°41.366 2°48.063 -999 -999 -999 -999 -999
2009-08-25 09:42:50 51°41.334 2°48.044 -999 -999 -999 -999 -999
2009-08-25 09:43:00 51°41.302 2°48.026 -999 -999 -999 -999 -999
2009-08-25 09:43:10 51°41.271 2°48.006 -999 -999 -999 -999 -999
2009-08-25 09:43:20 51°41.239 2°47.985 -999 -999 -999 -999 -999
2009-08-25 09:43:30 51°41.206 2°47.969 -999 -999 -999 -999 -999
2009-08-25 09:43:40 51°41.174 2°47.951 -999 -999 -999 -999 -999
2009-08-25 09:43:50 51°41.141 2°47.932 -999 -999 -999 -999 -999
2009-08-25 09:44:00 51°41.109 2°47.913 -999 -999 -999 -999 -999
2009-08-25 09:44:10 51°41.076 2°47.892 -999 -999 -999 -999 -999
2009-08-25 09:44:20 51°41.045 2°47.872 -999 -999 -999 -999 -999
2009-08-25 09:44:30 51°41.012 2°47.85 -999 -999 -999 -999 -999
2009-08-25 09:44:40 51°40.98 2°47.828 -999 -999 -999 -999 -999
2009-08-25 09:44:50 51°40.948 2°47.806 -999 -999 -999 -999 -999
2009-08-25 09:45:00 51°40.916 2°47.782 -999 -999 -999 -999 -999
2009-08-25 09:45:10 51°40.885 2°47.759 -999 -999 -999 -999 -999
2009-08-25 09:45:20 51°40.853 2°47.735 -999 -999 -999 -999 -999
2009-08-25 09:45:30 51°40.822 2°47.711 -999 -999 -999 -999 -999
2009-08-25 09:45:40 51°40.79 2°47.687 -999 -999 -999 -999 -999
2009-08-25 09:45:50 51°40.759 2°47.664 -999 -999 -999 -999 -999
2009-08-25 09:46:00 51°40.727 2°47.64 -999 -999 -999 -999 -999
2009-08-25 09:46:10 51°40.696 2°47.617 -999 -999 -999 -999 -999
2009-08-25 09:46:20 51°40.664 2°47.593 -999 -999 -999 -999 -999
2009-08-25 09:46:30 51°40.633 2°47.569 -999 -999 -999 -999 -999
2009-08-25 09:46:40 51°40.601 2°47.545 -999 -999 -999 -999 -999
2009-08-25 09:46:50 51°40.57 2°47.521 -999 -999 -999 -999 -999
2009-08-25 09:47:00 51°40.538 2°47.496 -999 -999 -999 -999 -999
2009-08-25 09:47:10 51°40.507 2°47.472 -999 -999 -999 -999 -999
2009-08-25 09:47:20 51°40.475 2°47.447 -999 -999 -999 -999 -999
2009-08-25 09:47:30 51°40.444 2°47.422 -999 -999 -999 -999 -999
2009-08-25 09:47:40 51°40.412 2°47.397 -999 -999 -999 -999 -999
2009-08-25 09:47:50 51°40.381 2°47.373 -999 -999 -999 -999 -999
2009-08-25 09:48:00 51°40.349 2°47.349 -999 -999 -999 -999 -999
2009-08-25 09:48:10 51°40.317 2°47.326 -999 -999 -999 -999 -999
2009-08-25 09:48:20 51°40.285 2°47.302 -999 -999 -999 -999 -999
2009-08-25 09:48:30 51°40.254 2°47.279 -999 -999 -999 -999 -999
2009-08-25 09:48:40 51°40.222 2°47.255 -999 -999 -999 -999 -999
2009-08-25 09:48:50 51°40.19 2°47.23 -999 -999 -999 -999 -999
2009-08-25 09:49:00 51°40.159 2°47.206 -999 -999 -999 -999 -999
2009-08-25 09:49:10 51°40.127 2°47.181 -999 -999 -999 -999 -999
2009-08-25 09:49:20 51°40.095 2°47.157 -999 -999 -999 -999 -999
2009-08-25 09:49:30 51°40.063 2°47.134 -999 -999 -999 -999 -999
2009-08-25 09:49:40 51°40.031 2°47.11 -999 -999 -999 -999 -999
2009-08-25 09:49:50 51°39.999 2°47.085 -999 -999 -999 -999 -999
2009-08-25 09:50:00 51°39.968 2°47.06 -999 -999 -999 -999 -999
2009-08-25 09:50:10 51°39.936 2°47.036 -999 -999 -999 -999 -999